Home > Time Zones > World Clock > Weather > Spain > Palma > Past weeks

Flag for Spain Weather past 2 weeks in Palma, Majorca, Spain

Now
72 °F

Passing clouds.


Feels Like: 67 °F
Forecast: 69 / 88 °F
Wind: 3 mph from Northeast

Location: Palma De Mallorca / Son San Juan

Current Time: Aug 28, 2014 at 3:43:03 AM

Latest Report: Aug 28, 2014 at 3:00 AM


Visibility: N/A

Pressure: 30.01 "Hg

Humidity: 94%

Dew point: 70 °F

Location of PalmaLocation

Historic Weather in Palma — Graph

°F

Palma temperature yesterday

Maximum temperature yesterday: 88 °F (at 1:00 PM)
Minimum temperature yesterday: 66 °F (at 8:00 AM)
Average temperature yesterday: 77 °F

Past Weeks' High & Low Weather Summary

 TemperatureHumidityPressure
High91 °F (Aug 13, 2:00 PM)100% (Aug 27, 8:00 AM)30.18 "Hg (Aug 27, 8:00 AM)
Low52 °F (Aug 21, 10:00 AM)37% (Aug 17, 1:00 PM)29.77 "Hg (Aug 13, 6:00 AM)
Average76 °F70%30.00 "Hg
* Reported Aug 13 2:00 AM — Aug 28 2:30 AM, Palma, Weather by CustomWeather, © 2014

Note: Actual official high and low records may vary slightly from our data, if they occured in-between our weather recording intervals... More about our weather records

Advertising

Palma weather history for previous 24 hours

 ConditionsComfort  
Time TempWeatherWind HumidityBarometerVisibility
2:30 AM
Aug 28
73 °FPassing clouds.1 mph89%29.98 "HgN/A
2:00 AM73 °FPassing clouds.2 mph89%30.01 "HgN/A
1:30 AM75 °FPassing clouds.No wind83%30.01 "HgN/A
1:00 AM75 °FPassing clouds.1 mph83%29.98 "HgN/A
12:30 AM75 °FPassing clouds.2 mph83%29.98 "HgN/A
12:00 AM77 °FPassing clouds.5 mph79%29.98 "HgN/A
11:30 PM
Aug 27
77 °FPassing clouds.6 mph79%29.98 "HgN/A
11:00 PM79 °FPassing clouds.6 mph74%29.98 "HgN/A
10:30 PM79 °FPassing clouds.5 mph74%29.98 "HgN/A
10:00 PM79 °FPassing clouds.6 mph79%29.98 "HgN/A
9:30 PM79 °FPassing clouds.2 mph84%29.95 "HgN/A
9:00 PM81 °FPassing clouds.2 mph79%29.95 "HgN/A
8:30 PM81 °FPassing clouds.3 mph79%29.95 "HgN/A
7:30 PM82 °FPassing clouds.7 mph79%29.95 "HgN/A
7:00 PM84 °FPassing clouds.8 mph70%29.92 "HgN/A
6:30 PM84 °FPassing clouds.9 mph70%29.95 "HgN/A
6:00 PM84 °FPassing clouds.12 mph70%29.95 "HgN/A
5:00 PM86 °FPassing clouds.13 mph66%29.92 "HgN/A
4:30 PM86 °FPassing clouds.10 mph66%29.92 "HgN/A
4:00 PM86 °FPassing clouds.10 mph62%29.92 "HgN/A
3:30 PM86 °FPassing clouds.10 mph62%29.92 "HgN/A
3:00 PM86 °FPassing clouds.10 mph66%29.92 "HgN/A
2:30 PM86 °FPassing clouds.13 mph66%29.92 "HgN/A
2:00 PM86 °FPassing clouds.14 mph66%29.95 "HgN/A
1:30 PM86 °FPassing clouds.12 mph66%29.95 "HgN/A
1:00 PM88 °FPassing clouds.7 mph59%29.95 "HgN/A
12:30 PM86 °FPassing clouds.6 mph62%29.95 "HgN/A
12:00 PM86 °FPassing clouds.3 mph59%29.95 "HgN/A
11:30 AM84 °FPassing clouds.6 mph62%29.95 "HgN/A
11:00 AM84 °FPassing clouds.5 mph62%29.95 "HgN/A
10:30 AM82 °FPassing clouds.2 mph66%29.95 "HgN/A
10:00 AM81 °FPassing clouds.1 mph74%29.95 "HgN/A
9:30 AM73 °FPassing clouds.No wind94%29.95 "HgN/A
9:00 AM72 °FSleet. Cloudy.No wind94%29.95 "HgN/A
8:48 AM70 °FScattered clouds.No wind100%29.95 "Hg1 mi
8:30 AM70 °FPartly sunny.1 mph94%29.95 "Hg0 mi
8:00 AM66 °FPassing clouds.No wind100%29.95 "Hg0 mi
7:30 AM68 °FPassing clouds.1 mph94%29.92 "Hg0 mi
7:00 AM70 °FPassing clouds.No wind94%29.92 "Hg1 mi
6:30 AM70 °FPassing clouds.No wind94%29.92 "Hg1 mi
6:00 AM70 °FPassing clouds.No wind88%29.92 "Hg1 mi
5:53 AM70 °FPassing clouds.No wind88%29.92 "Hg1 mi
5:30 AM68 °FSleet. Passing clouds.No wind94%29.92 "Hg4 mi
5:00 AM68 °FSleet. Overcast.No wind88%29.92 "Hg4 mi
4:30 AM68 °FSleet. Overcast.No wind83%29.92 "Hg5 mi
4:00 AM68 °FSleet. Overcast.1 mph83%29.92 "Hg5 mi
3:48 AM68 °FPassing clouds.1 mph83%29.92 "Hg5 mi
3:30 AM68 °FPassing clouds.No wind88%29.92 "HgN/A
3:00 AM70 °FPassing clouds.1 mph83%29.92 "HgN/A
Weather by CustomWeather, © 2014

See weather overviewHow to use our weather pages